NOAA 16 DEB, 41659

Orbit data source: Space-Track

NOAA 16 DEB, 41659 is space debris in SSO originally from a launch on Thu, 21 Sep 2000 UTC launched from the Air Force Western Test Range (AFWTR). Debris objects in space refer to the collection of defunct objects orbiting the Earth. Examples of debris include non-operational satellites, rocket bodies, and fragments generated from explosions, collisions, or faulty payload assembly.

Loading next visibility...
Identifier
41659, 2000-055NY
Orbit
SSO
Country
Flag of USUS
Related business
Manufacturer
Unknown
Mission
Spacecraft
Bus & Motor
Unknown
Mass
Unknown
Launch date (UTC)
2000-09-21 (25 years ago)
Launch vehicle
Unknown
Launch site
Air Force Western Test Range (AFWTR)
Object type
Payload
Rocket body
Debris
Shape & HBR
Unknown shape, 0.1 m
Radar Cross Section
Small (<0.1 m²)

Expand to show TLE details & history
Last TLE update: 3 days ago

TLE from 3 days ago
0 NOAA 16 DEB
1 41659U 00055NY  25289.17546097  .00011818  00000-0  34846-2 0  9996
2 41659  98.8718  57.3420 0014496 150.2942 209.9073 14.43675950492005
Epoch: 2025-10-16T04:12Z
TLE epoch observation values (Epoch: 2025-10-16T04:12:39.827Z)
Latitude
-0.00005°
Longitude
-30.76289°
Altitude
758.278 km
Speed
7.471 km/s
True Right ascension
03h 49m 22s
True Declination
0° 00' 00"
Sunlit
Object was in full shadow at epoch
Visualization orbit readout
Latitude
Unknown
Longitude
Unknown
Altitude
Unknown
Speed
Unknown
Apparent Right ascension
Unknown
Apparent Declination
Unknown
Sunlit
N/A
Visualization observer readout
Local Sidereal Time
11:02:31
Azimuth
Unknown
Elevation
Unknown
Doppler factor
Unknown
Orbital elements
Apogee altitude
753.837 km
Perigee altitude
733.19 km
Semi-major axis
7,121.651 km
Eccentricity
0.00145
Inclination
98.8718°
RAAN
57.342°
Arg. of periapsis
150.2942°
True anomaly
209.82461°
Mean anomaly
209.9073°
Eccentric anomaly
209.86594°
Mean motion
3.61137 °/min
Orbital period
99.69 mins
BSTAR
0.0034846
Loading maneuver chart data...
Computing Atmospheric mass density...

Documentation

Showing up to 5 results
|